[Iaude] MPEC T217: 2023 TV8 [a=2.07,e=0.51,i=1.4,H=26.2]
    mpec at marsden.cfa.harvard.edu 
    mpec at marsden.cfa.harvard.edu
       
    Fri Oct 13 10:50:38 EDT 2023
    
    
  
M.P.E.C. 2023-T217                             Issued 2023 October 13, 14:49 UT
     The Minor Planet Electronic Circulars contain information on unusual
         minor planets, routine data on comets and natural satellites,
         and occasional editorial announcements.  They are published
    on behalf of Division F of the International Astronomical Union by the
          Minor Planet Center, Smithsonian Astrophysical Observatory,
                          Cambridge, MA 02138, U.S.A.
			  
             Prepared using the Tamkin Foundation Computer Network
                              MPC at CFA.HARVARD.EDU
            URL https://www.minorplanetcenter.net/    ISSN 1523-6714
                                    2023 TV8                                    
Observations:
     K23T08V  C2023 10 08.57946502 00 09.072+20 57 06.84         21.94GVET217F52
     K23T08V*1C2023 10 10.31210702 10 15.715+20 23 09.53         21.84GVET217G96
     K23T08V 1C2023 10 10.31730802 10 17.065+20 23 04.45         21.99GVET217G96
     K23T08V 1C2023 10 10.32250502 10 18.491+20 22 57.72         21.05GVET217G96
     K23T08V 1C2023 10 10.32770002 10 19.913+20 22 52.32         21.64GVET217G96
     K23T08V KC2023 10 10.42688102 10 46.128+20 20 57.70         21.27GVET217V06
     K23T08V KC2023 10 10.42962402 10 46.873+20 20 54.42         21.71GVET217V06
     K23T08V KC2023 10 10.43236502 10 47.633+20 20 50.96         21.51GVET217V06
     K23T08V KC2023 10 11.19881602 14 39.209+20 06 43.03         21.6 GVET217H01
     K23T08V KC2023 10 11.20689802 14 41.226+20 06 35.54         21.3 GVET217H01
     K23T08V KC2023 10 11.21356402 14 42.880+20 06 29.11         21.5 GVET217H01
     K23T08V KC2023 10 11.22006702 14 44.493+20 06 23.43         21.3 GVET217H01
     K23T08V KC2023 10 13.25038302 22 59.93 +19 31 52.9          22.0 VuET217H21
     K23T08V KC2023 10 13.26436402 23 02.51 +19 31 40.0          22.3 VuET217H21
     K23T08V KC2023 10 13.26911802 23 03.36 +19 31 35.5          21.8 VuET217H21
Observer details:
F52 Pan-STARRS 2, Haleakala.  Observers J. Bulger, T. Lowe, P. Minguez, A.
    Schultz, I. Smith.  Measurers K. Chambers, T. de Boer, J. Fairlamb, H.
    Gao, M. Huber, C.-C. Lin, E. Magnier, Y. Ramanjooloo, R. Wainscoat, R.
    Weryk.  1.8-m Ritchey-Chretien + CCD.
G96 Mt. Lemmon Survey.  Observer D. Rankin.  Measurers E. C. Beshore, D. Fay,
    J. B. Fazekas, D. C. Fuls, A. R. Gibbs, A. D. Grauer, H. Groeller, J. K.
    Hogan, R. A. Kowalski, S. M. Larson, G. J. Leonard, D. Rankin, R. L.
    Seaman, F. C. Shelly, K. W. Wierzchos.  1.5-m reflector + 10K CCD.
H01 Magdalena Ridge Observatory, Socorro.  Observers W. H. Ryan, E. V. Ryan.
    Measurer W. H. Ryan.  2.4-m f/8.9 Ritchey-Chretien + CCD.
H21 Astronomical Research Observatory, Westfield.  Observer R. Holmes.
    Measurers T. Linder, R. Holmes, L. Horn.  0.76-m f/3.0 astrograph + CCD.
V06 Catalina Sky Survey-Kuiper.  Observer J. B. Fazekas.  Measurers E. C.
    Beshore, D. Fay, J. B. Fazekas, D. C. Fuls, A. R. Gibbs, A. D. Grauer, H.
    Groeller, J. K. Hogan, R. A. Kowalski, S. M. Larson, G. J. Leonard, D.
    Rankin, R. L. Seaman, F. C. Shelly, K. W. Wierzchos.  1.55-m reflector +
    1K CCD.
Orbital elements:
2023 TV8                                                 Earth MOID = 0.0213 AU
Epoch 2023 Sept. 13.0 TT = JDT 2460200.5                Bell                    
M   0.07072              (2000.0)            P               Q                  
n   0.33090186     Peri.  128.08046     +0.97189172     +0.23494669             
a   2.0701568      Node   218.33770     -0.22288665     +0.89764737             
e   0.5089235      Incl.    1.39039     -0.07581573     +0.37286625             
P   2.98           H   26.26          G   0.15           U   8                  
Residuals in seconds of arc
231008 F52  0.0   0.1+    231010 V06  0.2-  0.1-    231011 H01  0.0   0.5-
231010 G96  0.1-  0.1+    231010 V06  0.1-  0.0     231011 H01  0.1+  0.1-
231010 G96  0.6-  0.6+    231010 V06  0.3+  0.1-    231013 H21  0.1-  0.2+
231010 G96  0.0   0.5-    231011 H01  0.1+  0.3-    231013 H21  0.1+  0.4+
231010 G96  0.6+  0.2-    231011 H01  0.1+  0.3-    231013 H21  0.1-  0.4+
Ephemeris:
2023 TV8                 a,e,i = 2.07, 0.51, 1                   q = 1.0166
Date    TT    R. A. (2000) Decl.     Delta      r    Elong.  Phase     V
2023 09 13    17 56 07.0 -03 26 56   0.05661 1.0166    98.8    78.1    22.8
...
2023 09 28    23 23 35.6 +22 48 59   0.03396 1.0332   155.4    23.8    20.1
...
2023 10 06    01 40 25.3 +21 51 31   0.05857 1.0546   158.3    20.6    21.2
...
2023 10 12    02 18 05.9 +19 53 18   0.08282 1.0758   158.5    19.9    22.0
2023 10 13    02 22 03.4 +19 36 32   0.08711 1.0797   158.8    19.5    22.1
2023 10 14    02 25 34.5 +19 20 36   0.09146 1.0837   159.2    19.1    22.2
...
2023 10 20    02 40 04.0 +18 00 19   0.1188  1.1100   162.7    15.5    22.7
...
2023 10 28    02 49 17.2 +16 44 22   0.1588  1.1501   169.0     9.4    23.2
...
2023 11 12    02 54 59.6 +15 22 19   0.2477  1.2374   176.6     2.7    24.0
M. P. C. Staff               (C) Copyright 2023 MPC           M.P.E.C. 2023-T217
    
    
More information about the Iaude
mailing list